Regional Weather Roundup
Issued by NWS

Home | Current Version | Previous Version | Text Only | Print | Product List | Glossary Off
Versions: 1 2 3 4 5 6 7 8 9 10 11 12 13 14 15 16 17 18 19 20 21 22 23 24 25 26 27 28 29 30 31 32 33 34 35 36 37 38 39 40 41 42 43 44 45 46 47 48 49 50

000
ASUS43 KIND 011609
RWRIN

WEATHER ROUNDUP FOR INDIANA
NATIONAL WEATHER SERVICE INDIANAPOLIS IN
1200 PM EDT WED OCT 01 2014

NOTE: "FAIR" INDICATES FEW OR NO CLOUDS BELOW 12,000 FEET WITH NO
SIGNIFICANT WEATHER AND/OR OBSTRUCTIONS TO VISIBILITY.

* - STATION DOES NOT REPORT WEATHER SUCH AS PRECIPITATION OR FOG.

+ - STATION NOT QUALITY CONTROLLED BY THE NATIONAL WEATHER SERVICE.
    USE DATA WITH CAUTION...ESPECIALLY DEWPOINT AND RELATIVE
    HUMIDITY OBSERVATIONS.

INZ001>003-010>013-019-020-011700-
NORTHWEST INDIANA

CITY           SKY/WX    TMP DP  RH WIND       PRES   REMARKS
GARY /AIRPORT/ SUNNY     63  50  63 SE9       30.04S
KNOX *+        MOSUNNY   60  49  66 SE6       30.04S
LA PORTE +     MOSUNNY   61  51  69 SE7       30.05S
MICHIGAN CITY+ SUNNY     59  46  63 S7        30.04F
MONTICELLO +   MOSUNNY   57  52  83 E7        30.03F
RENSSELAER +   SUNNY     61  54  77 SE8       30.04S
VALPARAISO     SUNNY     60  49  66 S8        30.04F

$$

LMZ046-743>745-011700-
SOUTHERN LAKE MICHIGAN

STATION/POSITION TIME  TEMP WIND        PRES
                       AIR  DIR/SP/G
                 (UTC) (F)  (DEG/KT/KT) (MB)
MICHIGAN CITY    1500   56  120/  9/ 11   N/A

$$

INZ004-005-014>016-021>024-011700-
NORTH CENTRAL INDIANA

CITY           SKY/WX    TMP DP  RH WIND       PRES   REMARKS
ELKHART        CLOUDY    57  48  72 S8        30.07S
GOSHEN         CLOUDY    60  50  69 SE9       30.06F
LOGANSPORT +   CLOUDY    54  50  87 E7        30.06S FOG
PERU/GRISSOM   CLOUDY    55  55 100 S5        30.06R
ROCHESTER +    CLOUDY    55  52  88 SE7       30.07S FOG
SOUTH BEND     CLOUDY    61  48  63 SE13      30.06S
WARSAW +       CLOUDY    57  50  77 SE5       30.06S

$$

INZ006>009-017-018-025>027-011700-
NORTHEAST INDIANA

CITY           SKY/WX    TMP DP  RH WIND       PRES   REMARKS
ANGOLA *+      CLOUDY    57  48  72 S5        30.07S
AUBURN +       MOSUNNY   59  50  72 SE3       30.08R
FORT WAYNE     PTSUNNY   58  51  78 SE7       30.07S
HUNTINGTON +   CLOUDY    55  51  85 S5        30.07R

$$

INZ028-029-035-036-043>045-051>053-011700-
WEST CENTRAL INDIANA

CITY           SKY/WX    TMP DP  RH WIND       PRES   REMARKS
GREENCASTLE +  SUNNY     64  54  68 E6        30.02F
LAFAYETTE      SUNNY     62  52  69 E9        30.02F
TERRE HAUTE    SUNNY     69  57  65 SE5       30.00F

$$

INZ030>032-037>040-046>048-054>057-064-065-011700-
CENTRAL INDIANA

CITY           SKY/WX    TMP DP  RH WIND       PRES   REMARKS
ANDERSON       PTSUNNY   55  54  94 SE12      30.07R
CP ATTERBURY + SUNNY     64  52  63 S5        30.04S
FRANKFORT +    SUNNY     65  53  63 E5        30.04S
INDIANAPOLIS   MOSUNNY   64  51  62 VRB5      30.02S
-EAGLE CREEK   SUNNY     64  50  60 SE6       30.03S
KOKOMO *+      CLOUDY    54  50  87 SE5       30.06S
MARION +       CLOUDY    55  51  86 SE5       30.07R
MT COMFORT *+  SUNNY     64  46  52 E5        30.04S
SHELBYVILLE    SUNNY     68  51  54 VRB6      30.03S
ZIONSVILLE +   SUNNY     63  51  63 CALM      30.04S

$$

INZ033-034-041-042-049-050-058-059-011700-
EAST CENTRAL INDIANA

CITY           SKY/WX    TMP DP  RH WIND       PRES   REMARKS
MUNCIE         CLOUDY    56  52  86 SE7       30.06S

$$

INZ060-061-067>069-081>083-085>088-011700-
SOUTHWEST INDIANA

CITY           SKY/WX    TMP DP  RH WIND       PRES   REMARKS
EVANSVILLE     PTSUNNY   74  59  59 SE5       29.98F
WASHINGTON +   SUNNY     73  60  64 SE5       29.98F

$$

INZ062-063-066-070>080-084-089>092-011700-
SOUTH CENTRAL AND SOUTHEAST INDIANA

CITY           SKY/WX    TMP DP  RH WIND       PRES   REMARKS
BLOOMINGTON    SUNNY     66  56  70 E7        30.01F

$$




USA.gov is the U.S. government's official web portal to all federal, state and local government web resources and services.